Time,TemperatureF,DewpointF,PressureIn,WindDirection,WindDirectionDegrees,WindSpeedMPH,WindSpeedGustMPH,Humidity,HourlyPrecipIn,Conditions,Clouds,dailyrainin,SoftwareType,DateUTC
2013-01-21 00:22:00,43.0,42.0,-100.00,NW,306,0.0,-999.0,95,0.00,,,-99.99,,2013-01-21 05:22:00,
2013-01-21 00:34:00,43.0,42.0,-100.00,NW,306,0.0,-999.0,95,0.00,,,-99.99,,2013-01-21 05:34:00,
2013-01-21 00:42:00,43.0,42.0,-100.00,NW,306,0.0,-999.0,95,0.00,,,-99.99,,2013-01-21 05:42:00,
2013-01-21 01:23:00,42.0,40.0,-100.00,West,279,0.0,-999.0,95,0.00,,,-99.99,,2013-01-21 06:23:00,
2013-01-21 01:33:00,42.0,40.0,-100.00,West,279,0.0,-999.0,95,0.00,,,-99.99,,2013-01-21 06:33:00,
2013-01-21 01:43:00,42.0,40.0,-100.00,West,279,0.0,-999.0,95,0.00,,,-99.99,,2013-01-21 06:43:00,
2013-01-21 02:23:00,41.0,39.0,-100.00,NW,322,0.0,-999.0,94,0.00,,,-99.99,,2013-01-21 07:23:00,
2013-01-21 02:33:00,41.0,39.0,-100.00,NW,322,0.0,-999.0,94,0.00,,,-99.99,,2013-01-21 07:33:00,
2013-01-21 02:42:00,41.0,39.0,-100.00,NW,322,0.0,-999.0,94,0.00,,,-99.99,,2013-01-21 07:42:00,
2013-01-21 03:23:00,41.0,39.0,-100.00,SSW,193,0.0,-999.0,93,0.00,,,-99.99,,2013-01-21 08:23:00,
2013-01-21 03:33:00,41.0,39.0,-100.00,SSW,193,0.0,-999.0,93,0.00,,,-99.99,,2013-01-21 08:33:00,
2013-01-21 03:42:00,41.0,39.0,-100.00,SSW,193,0.0,-999.0,93,0.00,,,-99.99,,2013-01-21 08:42:00,
2013-01-21 04:23:00,40.0,39.0,-100.00,West,270,0.0,-999.0,95,0.00,,,-99.99,,2013-01-21 09:23:00,
2013-01-21 04:33:00,40.0,39.0,-100.00,West,270,0.0,-999.0,95,0.00,,,-99.99,,2013-01-21 09:33:00,
2013-01-21 04:42:00,40.0,39.0,-100.00,West,270,0.0,-999.0,95,0.00,,,-99.99,,2013-01-21 09:42:00,
2013-01-21 05:22:00,40.0,39.0,-100.00,NW,305,0.0,-999.0,97,0.00,,,-99.99,,2013-01-21 10:22:00,
2013-01-21 05:33:00,40.0,39.0,-100.00,NW,305,0.0,-999.0,97,0.00,,,-99.99,,2013-01-21 10:33:00,
2013-01-21 05:43:00,40.0,39.0,-100.00,NW,305,0.0,-999.0,97,0.00,,,-99.99,,2013-01-21 10:43:00,
2013-01-21 06:23:00,40.0,38.0,-100.00,NW,305,0.0,-999.0,96,0.00,,,-99.99,,2013-01-21 11:23:00,
2013-01-21 06:33:00,40.0,38.0,-100.00,NW,305,0.0,-999.0,96,0.00,,,-99.99,,2013-01-21 11:33:00,
2013-01-21 06:43:00,40.0,38.0,-100.00,NW,305,0.0,-999.0,96,0.00,,,-99.99,,2013-01-21 11:43:00,
2013-01-21 07:22:00,38.0,38.0,-100.00,WNW,302,0.0,-999.0,98,0.00,,,-99.99,,2013-01-21 12:22:00,
2013-01-21 07:33:00,38.0,38.0,-100.00,WNW,302,0.0,-999.0,98,0.00,,,-99.99,,2013-01-21 12:33:00,
2013-01-21 07:43:00,38.0,38.0,-100.00,WNW,302,0.0,-999.0,98,0.00,,,-99.99,,2013-01-21 12:43:00,
2013-01-21 08:23:00,38.0,37.0,-100.00,WNW,291,1.0,-999.0,98,0.00,,,-99.99,,2013-01-21 13:23:00,
2013-01-21 08:33:00,38.0,37.0,-100.00,WNW,291,1.0,-999.0,98,0.00,,,-99.99,,2013-01-21 13:33:00,
2013-01-21 08:43:00,38.0,37.0,-100.00,WNW,291,1.0,-999.0,98,0.00,,,-99.99,,2013-01-21 13:43:00,
2013-01-21 09:23:00,45.0,39.0,-100.00,SW,236,1.0,-999.0,81,0.00,,,-99.99,,2013-01-21 14:23:00,
2013-01-21 09:33:00,45.0,39.0,-100.00,SW,236,1.0,-999.0,81,0.00,,,-99.99,,2013-01-21 14:33:00,
2013-01-21 09:43:00,45.0,39.0,-100.00,SW,236,1.0,-999.0,81,0.00,,,-99.99,,2013-01-21 14:43:00,
2013-01-21 10:23:00,52.0,44.0,-100.00,SW,235,2.0,-999.0,73,0.00,,,-99.99,,2013-01-21 15:23:00,
2013-01-21 10:33:00,52.0,44.0,-100.00,SW,235,2.0,-999.0,73,0.00,,,-99.99,,2013-01-21 15:33:00,
2013-01-21 10:43:00,52.0,44.0,-100.00,SW,235,2.0,-999.0,73,0.00,,,-99.99,,2013-01-21 15:43:00,
2013-01-21 11:23:00,57.0,41.0,-100.00,WSW,246,4.0,-999.0,55,0.00,,,-99.99,,2013-01-21 16:23:00,
2013-01-21 11:33:00,57.0,41.0,-100.00,WSW,246,4.0,-999.0,55,0.00,,,-99.99,,2013-01-21 16:33:00,
2013-01-21 11:43:00,57.0,41.0,-100.00,WSW,246,4.0,-999.0,55,0.00,,,-99.99,,2013-01-21 16:43:00,
2013-01-21 12:23:00,61.0,39.0,-100.00,WSW,254,4.0,-999.0,44,0.00,,,-99.99,,2013-01-21 17:23:00,
2013-01-21 12:33:00,61.0,39.0,-100.00,WSW,254,4.0,-999.0,44,0.00,,,-99.99,,2013-01-21 17:33:00,
2013-01-21 12:43:00,61.0,39.0,-100.00,WSW,254,4.0,-999.0,44,0.00,,,-99.99,,2013-01-21 17:43:00,
2013-01-21 13:23:00,63.0,35.0,-100.00,West,264,6.0,-999.0,36,0.00,,,-99.99,,2013-01-21 18:23:00,
2013-01-21 13:33:00,63.0,35.0,-100.00,West,264,6.0,-999.0,36,0.00,,,-99.99,,2013-01-21 18:33:00,
2013-01-21 13:43:00,63.0,35.0,-100.00,West,264,6.0,-999.0,36,0.00,,,-99.99,,2013-01-21 18:43:00,
2013-01-21 14:23:00,63.0,36.0,-100.00,WSW,249,4.0,-999.0,37,0.00,,,-99.99,,2013-01-21 19:23:00,
2013-01-21 14:33:00,63.0,36.0,-100.00,WSW,249,4.0,-999.0,37,0.00,,,-99.99,,2013-01-21 19:33:00,
2013-01-21 14:43:00,63.0,36.0,-100.00,WSW,249,4.0,-999.0,37,0.00,,,-99.99,,2013-01-21 19:43:00,
2013-01-21 15:23:00,63.0,36.0,-100.00,WSW,246,5.0,-999.0,37,0.00,,,-99.99,,2013-01-21 20:23:00,
2013-01-21 15:33:00,63.0,36.0,-100.00,WSW,246,5.0,-999.0,37,0.00,,,-99.99,,2013-01-21 20:33:00,
2013-01-21 15:43:00,63.0,36.0,-100.00,WSW,246,5.0,-999.0,37,0.00,,,-99.99,,2013-01-21 20:43:00,
2013-01-21 16:23:00,64.0,37.0,-100.00,WSW,241,4.0,-999.0,38,0.00,,,-99.99,,2013-01-21 21:23:00,
2013-01-21 16:33:00,64.0,37.0,-100.00,WSW,241,4.0,-999.0,38,0.00,,,-99.99,,2013-01-21 21:33:00,
2013-01-21 16:43:00,64.0,37.0,-100.00,WSW,241,4.0,-999.0,38,0.00,,,-99.99,,2013-01-21 21:43:00,
2013-01-21 17:23:00,62.0,37.0,-100.00,WSW,248,3.0,-999.0,40,0.00,,,-99.99,,2013-01-21 22:23:00,
2013-01-21 17:33:00,62.0,37.0,-100.00,WSW,248,3.0,-999.0,40,0.00,,,-99.99,,2013-01-21 22:33:00,
2013-01-21 17:43:00,62.0,37.0,-100.00,WSW,248,3.0,-999.0,40,0.00,,,-99.99,,2013-01-21 22:43:00,
2013-01-21 18:23:00,60.0,40.0,-100.00,WSW,238,3.0,-999.0,48,0.00,,,-99.99,,2013-01-21 23:23:00,
2013-01-21 18:33:00,60.0,40.0,-100.00,WSW,238,3.0,-999.0,48,0.00,,,-99.99,,2013-01-21 23:33:00,
2013-01-21 18:42:00,60.0,40.0,-100.00,WSW,238,3.0,-999.0,48,0.00,,,-99.99,,2013-01-21 23:42:00,
2013-01-21 19:23:00,56.0,42.0,-100.00,SW,232,2.0,-999.0,58,0.00,,,-99.99,,2013-01-22 00:23:00,
2013-01-21 19:33:00,56.0,42.0,-100.00,SW,232,2.0,-999.0,58,0.00,,,-99.99,,2013-01-22 00:33:00,
2013-01-21 19:43:00,56.0,42.0,-100.00,SW,232,2.0,-999.0,58,0.00,,,-99.99,,2013-01-22 00:43:00,
2013-01-21 20:23:00,56.0,42.0,-100.00,SW,233,3.0,-999.0,60,0.00,,,-99.99,,2013-01-22 01:23:00,
2013-01-21 20:33:00,56.0,42.0,-100.00,SW,233,3.0,-999.0,60,0.00,,,-99.99,,2013-01-22 01:33:00,
2013-01-21 20:43:00,56.0,42.0,-100.00,SW,233,3.0,-999.0,60,0.00,,,-99.99,,2013-01-22 01:43:00,
2013-01-21 21:23:00,54.0,41.0,-100.00,WSW,257,2.0,-999.0,61,0.00,,,-99.99,,2013-01-22 02:23:00,
2013-01-21 21:33:00,54.0,41.0,-100.00,WSW,257,2.0,-999.0,61,0.00,,,-99.99,,2013-01-22 02:33:00,
2013-01-21 21:43:00,54.0,41.0,-100.00,WSW,257,2.0,-999.0,61,0.00,,,-99.99,,2013-01-22 02:43:00,
2013-01-21 22:22:00,54.0,38.0,-100.00,WSW,249,2.0,-999.0,56,0.00,,,-99.99,,2013-01-22 03:22:00,
2013-01-21 22:33:00,54.0,38.0,-100.00,WSW,249,2.0,-999.0,56,0.00,,,-99.99,,2013-01-22 03:33:00,
2013-01-21 22:42:00,54.0,38.0,-100.00,WSW,249,2.0,-999.0,56,0.00,,,-99.99,,2013-01-22 03:42:00,
2013-01-21 23:22:00,53.0,36.0,-100.00,West,278,4.0,-999.0,53,0.00,,,-99.99,,2013-01-22 04:22:00,
2013-01-21 23:33:00,53.0,36.0,-100.00,West,278,4.0,-999.0,53,0.00,,,-99.99,,2013-01-22 04:33:00,
2013-01-21 23:42:00,53.0,36.0,-100.00,West,278,4.0,-999.0,53,0.00,,,-99.99,,2013-01-22 04:42:00,